FW4342 Weather Reports


time (UTC)temp
C
wind
direction
speed
KPH
gust
KPH
rain 1hr
cm
rain 24hr
cm
rain mn
cm
humidity
%
barometer
mb
20260906124433 18 90 0.0 3.2 0.00 0.03 0.00 94 1018.1
20260906122243 18 90 0.0 1.6 0.00 0.03 0.00 94 1018.0
20260906122036 17 90 0.0 1.6 0.00 0.03 0.00 94 1018.0
20260906121414 17 90 0.0 1.6 0.00 0.03 0.00 94 1018.0
20260906121003 18 90 0.0 1.6 0.00 0.03 0.00 94 1017.7
20260906115232 17 90 0.0 3.2 0.00 0.03 0.00 94 1017.7
20260906114813 17 90 0.0 1.6 0.00 0.03 0.00 94 1017.8
20260906114356 17 90 0.0 1.6 0.00 0.03 0.00 94 1017.8
20260906111013 17 320 0.0 0.0 0.00 0.03 0.00 93 1017.0
20260906110806 17 320 0.0 3.2 0.00 0.03 0.00 93 1017.1
20260906110633 18 90 0.0 1.6 0.00 0.03 0.00 94 1017.3
20260906110045 17 320 0.0 0.0 0.00 0.03 0.00 93 1017.1
20260906110029 18 90 0.0 1.6 0.00 0.03 0.00 94 1017.4
20260906105726 17 320 0.0 1.6 0.00 0.03 0.00 93 1016.9
20260906105522 18 90 0.0 1.6 0.00 0.03 0.00 94 1017.4
20260906105141 18 90 0.0 1.6 0.00 0.03 0.00 94 1017.4
20260906104709 18 320 0.0 1.6 0.00 0.03 0.00 93 1016.9
20260906104520 18 90 0.0 1.6 0.00 0.03 0.00 94 1017.4
20260906104300 18 90 0.0 4.8 0.00 0.03 0.00 94 1017.3
20260906104048 18 90 0.0 4.8 0.00 0.03 0.00 94 1017.3
20260906103842 18 320 0.0 1.6 0.00 0.03 0.00 94 1017.3
20260906102956 17 320 0.0 0.0 0.00 0.03 0.00 94 1017.4
20260906101759 17 320 0.0 1.6 0.00 0.03 0.00 93 1017.3
20260906095547 17 320 0.0 0.0 0.00 0.03 0.00 93 1017.2
20260906094709 17 320 0.0 1.6 0.00 0.03 0.00 93 1016.9
20260906094454 17 320 0.0 1.6 0.00 0.03 0.00 93 1017.1
20260906093547 18 320 0.0 3.2 0.00 0.03 0.00 92 1016.9
20260906093512 17 320 0.0 0.0 0.00 0.03 0.00 93 1017.0
20260906093434 18 320 0.0 3.2 0.00 0.03 0.00 92 1017.0
20260906093120 17 320 0.0 0.0 0.00 0.03 0.00 93 1016.9
20260906092659 17 320 0.0 0.0 0.00 0.03 0.00 93 1017.0
20260906092455 17 320 0.0 0.0 0.00 0.03 0.00 93 1017.0
20260906092032 17 320 0.0 0.0 0.00 0.03 0.00 93 1017.2
20260906090637 17 320 0.0 3.2 0.00 0.03 0.00 93 1017.1
20260906085730 18 320 0.0 1.6 0.00 0.03 0.00 92 1017.0
20260906085614 17 320 0.0 0.0 0.00 0.03 0.00 92 1017.0
20260906085509 17 320 0.0 1.6 0.00 0.03 0.00 93 1017.2
20260906085325 18 320 0.0 0.0 0.00 0.03 0.00 92 1017.1
20260906085012 17 320 0.0 1.6 0.00 0.03 0.00 93 1017.2
20260906084042 17 320 0.0 1.6 0.00 0.03 0.00 93 1017.0
20260906083505 17 320 0.0 1.6 0.00 0.03 0.00 93 1017.0
20260906082754 17 320 0.0 1.6 0.00 0.03 0.00 93 1016.8
20260906082046 18 320 0.0 1.6 0.00 0.03 0.00 93 1016.9
20260906081211 18 320 0.0 0.0 0.00 0.03 0.00 91 1016.8
20260906075834 18 320 0.0 1.6 0.00 0.03 0.00 93 1016.8
20260906075625 18 320 0.0 1.6 0.00 0.03 0.00 93 1017.0
20260906075207 18 320 0.0 1.6 0.00 0.03 0.00 93 1017.0
20260906073905 18 320 0.0 1.6 0.00 0.03 0.00 93 1016.9
20260906073237 18 320 0.0 1.6 0.00 0.03 0.00 93 1016.9
20260906072530 18 320 0.0 1.6 0.00 0.03 0.00 93 1016.8
20260906072029 18 320 0.0 1.6 0.00 0.03 0.00 93 1016.8
20260906071817 18 320 0.0 0.0 0.00 0.03 0.00 92 1016.9
20260906071356 18 320 0.0 1.6 0.00 0.03 0.00 92 1016.9
20260906070039 18 320 1.6 1.6 0.00 0.03 0.00 92 1016.8
20260906065630 18 320 0.0 1.6 0.00 0.03 0.00 92 1016.9
20260906065208 18 320 0.0 1.6 0.00 0.03 0.00 92 1017.0
20260906063242 18 320 0.0 0.0 0.00 0.03 0.00 92 1017.1
20260906061506 18 320 0.0 0.0 0.00 0.03 0.00 92 1017.0
20260906060938 18 320 0.0 0.0 0.00 0.03 0.00 92 1016.8
20260906060603 18 320 0.0 0.0 0.00 0.03 0.00 92 1017.1
20260906060026 19 320 0.0 1.6 0.00 0.03 0.00 90 1016.1
20260906055936 18 320 0.0 0.0 0.00 0.03 0.00 91 1017.0
20260906055708 18 320 0.0 1.6 0.00 0.03 0.00 91 1017.0
20260906054835 18 320 0.0 1.6 0.00 0.03 0.00 91 1016.8
20260906054146 18 320 0.0 1.6 0.00 0.03 0.00 91 1016.8
20260906053416 18 320 0.0 1.6 0.00 0.03 0.00 91 1016.9
20260906052638 18 320 0.0 0.0 0.00 0.03 0.00 91 1016.7
20260906051746 18 320 0.0 0.0 0.00 0.03 0.00 91 1016.8
20260906051128 18 320 0.0 0.0 0.00 0.03 0.00 91 1016.8
20260906050428 20 320 0.0 3.2 0.00 0.03 0.00 89 1015.9
20260906050409 18 320 0.0 0.0 0.00 0.03 0.00 91 1016.8
20260906045931 18 320 0.0 0.0 0.00 0.03 0.00 91 1016.8
20260906045411 18 320 0.0 0.0 0.00 0.03 0.00 91 1016.7
20260906044953 18 320 0.0 0.0 0.00 0.03 0.00 91 1016.6
20260906044744 18 320 0.0 0.0 0.00 0.03 0.00 90 1016.6
20260906044521 18 320 0.0 0.0 0.00 0.03 0.00 91 1016.5
20260906043645 18 320 0.0 0.0 0.00 0.03 0.00 90 1016.3
20260906043015 18 320 0.0 0.0 0.00 0.03 0.00 90 1016.3
20260906042547 18 320 0.0 0.0 0.00 0.03 0.00 90 1016.3
20260906042123 18 320 0.0 0.0 0.00 0.03 0.00 90 1016.3
20260906041359 18 320 0.0 0.0 0.00 0.03 0.00 90 1016.3
20260906041246 21 325 1.6 3.2 0.00 0.03 0.00 89 1015.8
20260906035032 18 320 0.0 0.0 0.00 0.03 0.00 90 1016.2
20260906034823 18 320 0.0 1.6 0.00 0.03 0.00 90 1016.2
20260906034619 18 320 0.0 1.6 0.00 0.03 0.00 90 1016.1
20260906034158 18 320 0.0 0.0 0.00 0.03 0.00 90 1016.1
20260906033537 19 320 0.0 0.0 0.00 0.03 0.00 90 1016.1
20260906033335 19 320 0.0 3.2 0.00 0.03 0.00 90 1016.2
20260906032026 19 320 0.0 1.6 0.00 0.03 0.00 90 1016.2
20260906030009 19 320 0.0 1.6 0.00 0.03 0.00 89 1015.9
20260906025540 19 320 0.0 1.6 0.00 0.03 0.00 89 1016.1
20260906025028 19 320 0.0 1.6 0.00 0.03 0.00 89 1016.0
20260906024443 20 320 0.0 1.6 0.00 0.03 0.00 90 1016.0
20260906020315 20 325 0.0 3.2 0.00 0.03 0.00 89 1015.5
20260906015826 20 325 0.0 0.0 0.00 0.03 0.00 88 1015.5
20260906015609 20 325 0.0 0.0 0.00 0.03 0.00 88 1015.6
20260906015400 20 325 0.0 0.0 0.00 0.03 0.00 88 1015.6
20260906015157 21 325 0.0 0.0 0.00 0.03 0.00 88 1015.7
20260906014532 21 325 0.0 0.0 0.00 0.03 0.00 88 1015.8
20260906014119 21 325 0.0 0.0 0.00 0.03 0.00 88 1015.8
20260906013915 21 325 0.0 1.6 0.00 0.03 0.00 88 1015.8
20260906013502 21 325 0.0 1.6 0.00 0.03 0.00 88 1015.8
20260906012624 21 325 0.0 3.2 0.00 0.03 0.00 88 1015.7
20260906010423 21 326 1.6 4.8 0.00 0.03 0.00 88 1015.7
20260906002116 21 231 1.6 6.4 0.00 0.03 0.00 88 1015.7
20260906001445 21 200 1.6 6.4 0.00 0.03 0.00 87 1015.5
20260906000426 21 227 1.6 4.8 0.00 0.03 0.00 87 1015.6
20260906000003 21 227 1.6 4.8 0.00 0.03 0.00 87 1015.5
20260905234750 22 232 1.6 6.4 0.00 0.03 0.00 87 1015.6
20260905234425 26 207 3.2 9.7 0.00 0.03 0.00 77 1014.6
20260905234254 22 269 1.6 4.8 0.00 0.03 0.00 86 1015.6
20260905234035 22 225 1.6 4.8 0.00 0.03 0.00 86 1015.7
20260905233555 22 232 1.6 6.4 0.00 0.03 0.00 86 1015.8
20260905232806 22 216 1.6 8.0 0.00 0.03 0.00 85 1015.8
20260905232337 22 247 3.2 8.0 0.00 0.03 0.00 85 1015.7
20260905231854 22 165 1.6 6.4 0.00 0.03 0.00 85 1015.8
20260905230942 22 211 1.6 6.4 0.00 0.03 0.00 84 1015.7
20260905230243 22 145 3.2 6.4 0.00 0.03 0.00 83 1015.6
20260905225753 23 167 3.2 11.3 0.00 0.03 0.00 84 1015.6
20260905225319 23 229 1.6 11.3 0.00 0.03 0.00 83 1015.5
20260905224744 23 132 1.6 4.8 0.00 0.03 0.00 83 1015.3
20260905224105 23 238 1.6 6.4 0.00 0.03 0.00 82 1015.4
20260905223844 23 231 1.6 4.8 0.00 0.03 0.00 82 1015.4
20260905222314 25 169 1.6 6.4 0.00 0.03 0.00 79 1015.4
20260905221645 25 189 1.6 8.0 0.00 0.03 0.00 79 1015.3
20260905220758 25 156 3.2 8.0 0.00 0.03 0.00 79 1015.2
20260905215144 28 65 1.6 4.8 0.00 0.03 0.00 73 1014.6
20260905214826 26 189 1.6 6.4 0.00 0.03 0.00 78 1014.8
20260905214400 26 74 1.6 4.8 0.00 0.03 0.00 77 1014.9
20260905213644 26 263 1.6 6.4 0.00 0.03 0.00 77 1014.8
20260905213132 26 238 1.6 6.4 0.00 0.03 0.00 77 1014.7
20260905212820 26 43 3.2 6.4 0.00 0.03 0.00 77 1014.7
20260905212133 26 189 1.6 6.4 0.00 0.03 0.00 78 1014.7
20260905211637 26 181 1.6 8.0 0.00 0.03 0.00 78 1014.5
20260905211255 27 253 1.6 4.8 0.00 0.03 0.00 79 1014.8
20260905205918 27 188 3.2 8.0 0.00 0.03 0.00 76 1014.5
20260905205235 27 173 1.6 6.4 0.00 0.03 0.00 76 1014.5
20260905204736 27 218 3.2 16.1 0.00 0.03 0.00 77 1014.6
20260905204256 27 38 3.2 16.1 0.00 0.03 0.00 77 1014.5
20260905203830 27 38 3.2 6.4 0.00 0.03 0.00 79 1014.6
20260905203354 27 150 3.2 8.0 0.00 0.03 0.00 78 1014.6
20260905203137 27 175 3.2 8.0 0.00 0.03 0.00 78 1014.5
20260905202717 27 177 3.2 8.0 0.00 0.03 0.00 78 1014.4
20260905202510 27 134 1.6 6.4 0.00 0.03 0.00 77 1014.5
20260905201414 27 125 1.6 6.4 0.00 0.03 0.00 75 1014.5
20260905200942 28 291 1.6 8.0 0.00 0.03 0.00 75 1014.6
20260905200509 28 175 1.6 8.0 0.00 0.03 0.00 75 1014.6
20260905195831 28 144 1.6 4.8 0.00 0.03 0.00 76 1014.5
20260905195411 28 144 1.6 4.8 0.00 0.03 0.00 75 1014.5
20260905194108 28 65 1.6 4.8 0.00 0.03 0.00 74 1014.6
20260905193216 28 62 1.6 6.4 0.00 0.03 0.00 77 1014.6
20260905192542 28 297 1.6 6.4 0.00 0.03 0.00 77 1014.6
20260905191906 28 138 1.6 6.4 0.00 0.03 0.00 75 1014.6
20260905191432 28 138 1.6 6.4 0.00 0.03 0.00 75 1014.6
20260905190619 28 345 1.6 8.0 0.00 0.03 0.00 77 1014.7
20260905190245 28 308 1.6 8.0 0.00 0.03 0.00 76 1014.6
20260905190010 27 253 1.6 4.8 0.00 0.03 0.00 78 1014.7
20260905185528 27 228 1.6 8.0 0.00 0.03 0.00 78 1014.7
20260905183611 27 240 1.6 4.8 0.00 0.03 0.00 80 1014.7
20260905183146 27 164 1.6 4.8 0.00 0.03 0.00 81 1014.7
20260905182731 26 290 1.6 3.2 0.00 0.03 0.00 83 1014.9
20260905180316 25 51 1.6 3.2 0.00 0.03 0.00 83 1014.9
20260905180029 22 96 0.0 3.2 0.00 0.15 0.00 94 1014.8
20260905175750 25 306 1.6 3.2 0.00 0.03 0.00 83 1014.8
20260905175222 25 291 1.6 4.8 0.00 0.03 0.00 83 1014.9
20260905174645 25 311 1.6 4.8 0.00 0.03 0.00 82 1014.9
20260905174151 25 185 1.6 4.8 0.00 0.03 0.00 83 1015.0
20260905173713 25 107 1.6 4.8 0.00 0.03 0.00 84 1015.0
20260905173248 25 248 1.6 4.8 0.00 0.03 0.00 84 1014.9
20260905172532 22 197 1.6 8.0 0.00 0.18 0.00 94 1014.4
20260905172426 22 144 1.6 4.8 0.00 0.18 0.00 95 1014.2
20260905172247 25 229 1.6 6.4 0.03 0.03 0.00 84 1015.1
20260905171729 25 321 1.6 4.8 0.03 0.03 0.00 86 1015.0
20260905171515 25 94 1.6 6.4 0.03 0.03 0.00 86 1014.9
20260905165444 24 318 1.6 6.4 0.03 0.03 0.00 88 1015.2
20260905165023 24 158 0.0 6.4 0.03 0.03 0.00 89 1015.3
20260905163913 23 258 1.6 3.2 0.03 0.03 0.00 90 1015.1
20260905163451 23 229 1.6 3.2 0.03 0.03 0.00 90 1015.1
20260905162820 23 229 1.6 3.2 0.03 0.03 0.00 91 1015.2
20260905162616 23 229 0.0 3.2 0.00 0.00 0.00 91 1015.1
20260905162415 23 229 0.0 3.2 0.00 0.00 0.00 91 1015.2
20260905161113 23 225 0.0 3.2 0.00 0.15 0.00 91 1015.2
20260905160652 23 225 0.0 3.2 0.00 0.15 0.00 92 1015.2
20260905160433 23 225 1.6 4.8 0.00 0.15 0.00 92 1015.1
20260905160234 23 212 1.6 4.8 0.00 0.15 0.00 92 1015.1
20260905155540 23 200 1.6 3.2 0.00 0.15 0.00 93 1015.1
20260905155333 23 199 1.6 4.8 0.00 0.15 0.00 93 1014.9
20260905155123 22 200 1.6 4.8 0.00 0.15 0.00 93 1015.0
20260905153404 22 174 1.6 6.4 0.00 0.15 0.00 93 1015.0
20260905153152 23 187 1.6 6.4 0.00 0.15 0.00 93 1015.0
20260905152729 23 96 0.0 3.2 0.00 0.15 0.00 94 1014.9
20260905151652 22 96 1.6 3.2 0.00 0.15 0.00 94 1014.6
20260905151233 22 347 1.6 4.8 0.00 0.15 0.00 94 1014.7
20260905144020 22 200 1.6 6.4 0.00 0.18 0.00 95 1014.1
20260905143346 22 202 1.6 6.4 0.00 0.18 0.00 94 1014.1
20260905142718 22 186 1.6 4.8 0.00 0.18 0.00 95 1014.0
20260905141203 22 192 1.6 4.8 0.00 0.18 0.00 95 1014.2
20260905140744 22 206 0.0 3.2 0.00 0.18 0.00 95 1013.9
20260905140537 22 180 0.0 4.8 0.00 0.18 0.00 95 1014.0
20260905133721 21 332 0.0 3.2 0.00 0.18 0.00 95 1013.9
20260905131506 21 342 0.0 1.6 0.00 0.18 0.00 95 1014.5
20260905131248 21 342 0.0 3.2 0.00 0.18 0.00 95 1014.6
20260905131035 21 342 0.0 3.2 0.00 0.18 0.00 95 1014.2
20260905130359 21 343 0.0 3.2 0.00 0.18 0.00 95 1014.1
20260905130133 21 344 0.0 3.2 0.00 0.18 0.00 95 1013.9
20260905124814 21 345 0.0 3.2 0.00 0.18 0.00 94 1013.9